Hourly Data Report for February 09, 2017

All times are specified in Local Standard Time (LST). Add 1 hour to adjust for Daylight Saving Time where and when it is observed.

TORONTO INTL A
ONTARIO

43°40'36.000" N
79°37'50.000" W
173.40 m
6158731
71624
YYZ

Download Data

Hourly Data (February 2017)
Hourly Data Report for February 9, 2017
TIME Temp Definition
°C
Dew Point Definition
°C
Rel Hum Definition
%
Wind Dir Definition
10's deg

Wind Spd Definition
km/h
Visibility Definition
km
Stn Press Definition
kPa
Hmdx Definition


Wind Chill Definition


Weather Definition


00:00 -7.4 -15.2 54 33 30 24.1 99.15   -16 LegendNANA
01:00 -7.9 -14.8 58 36 20 24.1 99.12   -15 Mostly Cloudy
02:00 -8.6 -13.9 66 2 16 24.1 99.13   -15 LegendNANA
03:00 -9.6 -15.4 63 1 20 24.1 99.19   -17 LegendNANA
04:00 -10.8 -18.0 56 2 16 24.1 99.27   -18 Mainly Clear
05:00 -11.5 -18.6 56 36 17 24.1 99.34   -19 LegendNANA
06:00 -11.8 -19.1 55 36 18 24.1 99.38   -20 LegendNANA
07:00 -11.8 -19.8 52 35 16 24.1 99.41   -19 Mostly Cloudy
08:00 -11.8 -19.6 53 35 12 24.1 99.44   -18 LegendNANA
09:00 -11.6 -18.9 55 35 14 24.1 99.45   -18 LegendNANA
10:00 -10.2 -19.0 49 34 14 24.1 99.44   -17 Mostly Cloudy
11:00 -8.7 -17.4 50 33 15 24.1 99.48   -15 LegendNANA
12:00 -7.4 -16.2 50 33 16 24.1 99.47   -14 LegendNANA
13:00 -6.6 -17.0 44 36 14 24.1 99.44   -12 Clear
14:00 -6.2 -16.6 44 28 11 24.1 99.43   -11 LegendNANA
15:00 -5.0 -17.3 38 29 23 24.1 99.45   -12 LegendNANA
16:00 -5.5 -17.1 40 28 28 24.1 99.51   -13 Mostly Cloudy
17:00 -5.5 -15.7 45 28 35 24.1 99.56   -14 LegendNANA
18:00 -6.6 -14.5 54 28 28 24.1 99.63   -15 LegendNANA
19:00 -7.4 -12.9 65 27 34 24.1 99.66   -17 Clear
20:00 -7.6 -13.1 65 28 27 24.1 99.74   -16 LegendNANA
21:00 -7.8 -12.9 67 26 26 24.1 99.76   -16 LegendNANA
22:00 -7.3 -13.4 62 27 35 24.1 99.74   -17 Mainly Clear
23:00 -7.5 -13.2 64 28 34 24.1 99.81   -17 LegendNANA

Notes on Data Quality.

Legend

  • E = Estimated
  • M = Missing
  • NA = Not Available
Date modified: